Time,TemperatureF,DewpointF,PressureIn,WindDirection,WindDirectionDegrees,WindSpeedMPH,WindSpeedGustMPH,Humidity,HourlyPrecipIn,Conditions,Clouds,dailyrainin,SoftwareType,DateUTC
2013-08-03 00:00:00,73.5,72.9,30.04,ENE,69,0.0,0.0,98,0.00,,,0.00,Wunderground v.1.15,2013-08-03 04:00:00,
2013-08-03 00:05:00,73.4,72.8,30.04,ENE,68,0.0,0.0,98,0.00,,,0.00,Wunderground v.1.15,2013-08-03 04:05:00,
2013-08-03 00:10:00,73.4,72.8,30.04,ENE,68,0.0,0.0,98,0.00,,,0.00,Wunderground v.1.15,2013-08-03 04:10:00,
2013-08-03 00:15:00,73.4,72.8,30.04,ENE,69,0.0,0.0,98,0.00,,,0.00,Wunderground v.1.15,2013-08-03 04:15:00,
2013-08-03 00:20:00,73.3,72.7,30.04,ENE,68,0.0,0.0,98,0.00,,,0.00,Wunderground v.1.15,2013-08-03 04:20:00,
2013-08-03 00:30:00,73.2,72.6,30.04,ENE,68,0.0,0.0,98,0.00,,,0.00,Wunderground v.1.15,2013-08-03 04:30:00,
2013-08-03 00:39:00,73.4,72.8,30.05,ENE,69,0.0,0.0,98,0.00,,,0.00,Wunderground v.1.15,2013-08-03 04:39:00,
2013-08-03 00:45:00,73.4,72.8,30.04,ENE,69,0.0,0.0,98,0.00,,,0.00,Wunderground v.1.15,2013-08-03 04:45:00,
2013-08-03 00:55:00,73.4,72.8,30.05,ENE,69,0.0,0.0,98,0.00,,,0.00,Wunderground v.1.15,2013-08-03 04:55:00,
2013-08-03 01:05:00,73.2,72.6,30.05,ENE,69,0.0,0.0,98,0.00,,,0.00,Wunderground v.1.15,2013-08-03 05:05:00,
2013-08-03 01:10:00,73.1,72.5,30.05,ENE,68,0.0,0.0,98,0.00,,,0.00,Wunderground v.1.15,2013-08-03 05:10:00,
2013-08-03 01:15:00,73.0,72.4,30.05,ENE,69,0.0,0.0,98,0.00,,,0.00,Wunderground v.1.15,2013-08-03 05:15:00,
2013-08-03 01:25:00,72.6,72.0,30.05,ENE,75,1.0,1.0,98,0.00,,,0.00,Wunderground v.1.15,2013-08-03 05:25:00,
2013-08-03 01:30:00,72.5,71.9,30.05,ENE,75,0.0,0.0,98,0.00,,,0.00,Wunderground v.1.15,2013-08-03 05:30:00,
2013-08-03 01:35:00,72.4,71.8,30.05,ENE,75,0.0,0.0,98,0.00,,,0.00,Wunderground v.1.15,2013-08-03 05:35:00,
2013-08-03 01:40:00,72.6,72.0,30.05,ENE,75,0.0,0.0,98,0.00,,,0.00,Wunderground v.1.15,2013-08-03 05:40:00,
2013-08-03 01:45:00,72.6,72.0,30.04,ENE,75,0.0,0.0,98,0.00,,,0.00,Wunderground v.1.15,2013-08-03 05:45:00,
2013-08-03 01:55:00,72.6,72.0,30.04,ENE,75,0.0,0.0,98,0.00,,,0.00,Wunderground v.1.15,2013-08-03 05:55:00,
2013-08-03 02:05:00,72.8,72.2,30.04,ENE,75,0.0,0.0,98,0.00,,,0.00,Wunderground v.1.15,2013-08-03 06:05:00,
2013-08-03 02:15:00,72.9,72.3,30.04,ENE,75,0.0,0.0,98,0.00,,,0.00,Wunderground v.1.15,2013-08-03 06:15:00,
2013-08-03 02:25:00,72.8,72.2,30.04,ENE,75,0.0,0.0,98,0.00,,,0.00,Wunderground v.1.15,2013-08-03 06:25:00,
2013-08-03 02:30:00,72.8,72.2,30.03,ENE,75,0.0,0.0,98,0.00,,,0.00,Wunderground v.1.15,2013-08-03 06:30:00,
2013-08-03 02:40:00,72.7,72.1,30.03,ENE,75,0.0,0.0,98,0.00,,,0.00,Wunderground v.1.15,2013-08-03 06:40:00,
2013-08-03 02:50:00,72.7,72.1,30.03,ENE,75,0.0,0.0,98,0.00,,,0.00,Wunderground v.1.15,2013-08-03 06:50:00,
2013-08-03 02:55:00,72.7,72.1,30.03,ENE,75,0.0,0.0,98,0.00,,,0.00,Wunderground v.1.15,2013-08-03 06:55:00,
2013-08-03 03:00:00,72.7,72.4,30.03,ENE,75,0.0,0.0,99,0.00,,,0.00,Wunderground v.1.15,2013-08-03 07:00:00,
2013-08-03 03:10:00,72.7,72.4,30.03,ENE,75,0.0,1.0,99,0.00,,,0.00,Wunderground v.1.15,2013-08-03 07:10:00,
2013-08-03 03:20:00,72.3,71.7,30.03,ENE,75,0.0,0.0,98,0.00,,,0.00,Wunderground v.1.15,2013-08-03 07:20:00,
2013-08-03 03:30:00,72.1,71.5,30.03,ENE,75,0.0,0.0,98,0.00,,,0.00,Wunderground v.1.15,2013-08-03 07:30:00,
2013-08-03 03:35:00,71.9,71.3,30.03,ENE,75,0.0,0.0,98,0.00,,,0.00,Wunderground v.1.15,2013-08-03 07:35:00,
2013-08-03 03:45:00,71.6,71.0,30.02,ENE,75,0.0,0.0,98,0.00,,,0.00,Wunderground v.1.15,2013-08-03 07:45:00,
2013-08-03 03:55:00,71.6,71.0,30.02,ENE,75,0.0,0.0,98,0.00,,,0.00,Wunderground v.1.15,2013-08-03 07:55:00,
2013-08-03 04:05:00,71.4,70.8,30.02,ENE,75,0.0,0.0,98,0.00,,,0.00,Wunderground v.1.15,2013-08-03 08:05:00,
2013-08-03 04:10:00,71.5,70.9,30.02,ENE,74,0.0,2.0,98,0.00,,,0.00,Wunderground v.1.15,2013-08-03 08:10:00,
2013-08-03 04:15:00,71.6,71.0,30.02,ENE,74,1.0,2.0,98,0.00,,,0.00,Wunderground v.1.15,2013-08-03 08:15:00,
2013-08-03 04:25:00,71.4,71.1,30.02,ENE,74,0.0,0.0,99,0.00,,,0.00,Wunderground v.1.15,2013-08-03 08:25:00,
2013-08-03 04:30:00,71.4,71.1,30.02,ENE,74,0.0,0.0,99,0.00,,,0.00,Wunderground v.1.15,2013-08-03 08:30:00,
2013-08-03 04:40:00,71.3,71.0,30.02,ENE,74,0.0,0.0,99,0.00,,,0.00,Wunderground v.1.15,2013-08-03 08:40:00,
2013-08-03 04:45:00,71.3,71.0,30.02,ENE,74,0.0,0.0,99,0.00,,,0.00,Wunderground v.1.15,2013-08-03 08:45:00,
2013-08-03 04:55:00,71.2,70.9,30.02,ENE,74,0.0,0.0,99,0.00,,,0.00,Wunderground v.1.15,2013-08-03 08:55:00,
2013-08-03 05:05:00,71.1,70.5,30.02,ENE,74,0.0,0.0,98,0.00,,,0.00,Wunderground v.1.15,2013-08-03 09:05:00,
2013-08-03 05:10:00,71.0,70.7,30.02,ENE,74,0.0,1.0,99,0.00,,,0.00,Wunderground v.1.15,2013-08-03 09:10:00,
2013-08-03 05:20:00,71.0,70.7,30.02,ENE,74,0.0,0.0,99,0.00,,,0.00,Wunderground v.1.15,2013-08-03 09:20:00,
2013-08-03 05:25:00,70.8,70.5,30.02,ENE,74,0.0,0.0,99,0.00,,,0.00,Wunderground v.1.15,2013-08-03 09:25:00,
2013-08-03 05:30:00,70.8,70.5,30.02,ENE,74,0.0,0.0,99,0.00,,,0.00,Wunderground v.1.15,2013-08-03 09:30:00,
2013-08-03 05:35:00,70.6,70.3,30.02,ENE,74,0.0,0.0,99,0.00,,,0.00,Wunderground v.1.15,2013-08-03 09:35:00,
2013-08-03 05:45:00,70.6,70.3,30.02,ENE,74,0.0,0.0,99,0.00,,,0.00,Wunderground v.1.15,2013-08-03 09:45:00,
2013-08-03 05:55:00,70.4,70.1,30.03,ENE,74,0.0,0.0,99,0.00,,,0.00,Wunderground v.1.15,2013-08-03 09:55:00,
2013-08-03 06:05:00,70.2,69.9,30.03,ENE,74,0.0,0.0,99,0.00,,,0.00,Wunderground v.1.15,2013-08-03 10:05:00,
2013-08-03 06:09:00,70.0,69.7,30.03,ENE,74,0.0,0.0,99,0.00,,,0.00,Wunderground v.1.15,2013-08-03 10:09:00,
2013-08-03 06:15:00,69.9,69.6,30.03,ENE,74,0.0,0.0,99,0.00,,,0.00,Wunderground v.1.15,2013-08-03 10:15:00,
2013-08-03 06:25:00,69.8,69.5,30.03,ENE,74,0.0,0.0,99,0.00,,,0.00,Wunderground v.1.15,2013-08-03 10:25:00,
2013-08-03 06:35:00,69.7,69.4,30.03,ENE,74,0.0,0.0,99,0.00,,,0.00,Wunderground v.1.15,2013-08-03 10:35:00,
2013-08-03 06:40:00,69.8,69.5,30.03,ENE,74,0.0,0.0,99,0.00,,,0.00,Wunderground v.1.15,2013-08-03 10:40:00,
2013-08-03 06:45:00,69.8,69.5,30.03,ENE,74,0.0,0.0,99,0.00,,,0.00,Wunderground v.1.15,2013-08-03 10:45:00,
2013-08-03 06:55:00,69.9,69.6,30.03,ENE,74,0.0,0.0,99,0.00,,,0.00,Wunderground v.1.15,2013-08-03 10:55:00,
2013-08-03 07:05:00,69.9,69.6,30.03,ENE,74,0.0,0.0,99,0.00,,,0.00,Wunderground v.1.15,2013-08-03 11:05:00,
2013-08-03 07:10:00,70.0,69.7,30.04,ENE,74,0.0,0.0,99,0.00,,,0.00,Wunderground v.1.15,2013-08-03 11:10:00,
2013-08-03 07:20:00,70.2,69.9,30.04,ENE,73,0.0,0.0,99,0.00,,,0.00,Wunderground v.1.15,2013-08-03 11:20:00,
2013-08-03 07:30:00,70.5,70.2,30.03,North,5,0.0,0.0,99,0.00,,,0.00,Wunderground v.1.15,2013-08-03 11:30:00,
2013-08-03 07:35:00,70.7,70.4,30.04,WNW,290,0.0,0.0,99,0.00,,,0.00,Wunderground v.1.15,2013-08-03 11:35:00,
2013-08-03 07:45:00,71.3,71.0,30.04,ENE,60,0.0,0.0,99,0.00,,,0.00,Wunderground v.1.15,2013-08-03 11:45:00,
2013-08-03 07:55:00,71.8,71.5,30.04,ENE,60,0.0,0.0,99,0.00,,,0.00,Wunderground v.1.15,2013-08-03 11:55:00,
2013-08-03 08:05:00,72.0,71.7,30.05,ENE,60,0.0,0.0,99,0.00,,,0.00,Wunderground v.1.15,2013-08-03 12:05:00,
2013-08-03 08:10:00,72.1,71.8,30.05,ENE,60,0.0,0.0,99,0.00,,,0.00,Wunderground v.1.15,2013-08-03 12:10:00,
2013-08-03 08:19:00,73.0,72.7,30.05,ENE,60,0.0,0.0,99,0.00,,,0.00,Wunderground v.1.15,2013-08-03 12:19:00,
2013-08-03 08:25:00,73.8,73.5,30.05,ENE,60,0.0,0.0,99,0.00,,,0.00,Wunderground v.1.15,2013-08-03 12:25:00,
2013-08-03 08:30:00,74.5,74.2,30.05,NNE,13,0.0,0.0,99,0.00,,,0.00,Wunderground v.1.15,2013-08-03 12:30:00,
2013-08-03 08:40:00,75.8,75.5,30.05,NNE,13,0.0,0.0,99,0.00,,,0.00,Wunderground v.1.15,2013-08-03 12:40:00,
2013-08-03 08:50:00,76.7,76.4,30.05,ENE,64,0.0,1.0,99,0.00,,,0.00,Wunderground v.1.15,2013-08-03 12:50:00,
2013-08-03 09:00:00,77.6,77.0,30.06,ESE,115,2.0,2.0,98,0.00,,,0.00,Wunderground v.1.15,2013-08-03 13:00:00,
2013-08-03 09:09:00,78.7,77.5,30.06,ESE,118,1.0,1.0,96,0.00,,,0.00,Wunderground v.1.15,2013-08-03 13:09:00,
2013-08-03 09:15:00,79.5,77.6,30.06,ESE,119,1.0,1.0,94,0.00,,,0.00,Wunderground v.1.15,2013-08-03 13:15:00,
2013-08-03 09:25:00,81.0,77.8,30.06,South,169,1.0,2.0,90,0.00,,,0.00,Wunderground v.1.15,2013-08-03 13:25:00,
2013-08-03 09:34:00,82.3,77.0,30.05,SW,219,1.0,2.0,84,0.00,,,0.00,Wunderground v.1.15,2013-08-03 13:34:00,
2013-08-03 09:40:00,82.5,76.4,30.05,SW,219,1.0,2.0,82,0.00,,,0.00,Wunderground v.1.15,2013-08-03 13:40:00,
2013-08-03 09:50:00,83.2,76.8,30.05,SW,217,1.0,1.0,81,0.00,,,0.00,Wunderground v.1.15,2013-08-03 13:50:00,
2013-08-03 10:00:00,84.1,75.7,30.05,South,186,1.0,1.0,76,0.00,,,0.00,Wunderground v.1.15,2013-08-03 14:00:00,
2013-08-03 10:10:00,84.8,76.0,30.05,WNW,298,1.0,2.0,75,0.00,,,0.00,Wunderground v.1.15,2013-08-03 14:10:00,
2013-08-03 10:19:00,85.3,74.4,30.06,WNW,294,2.0,4.0,70,0.00,,,0.00,Wunderground v.1.15,2013-08-03 14:19:00,
2013-08-03 10:25:00,85.3,75.2,30.06,West,273,2.0,4.0,72,0.00,,,0.00,Wunderground v.1.15,2013-08-03 14:25:00,
2013-08-03 10:35:00,85.6,73.8,30.06,West,274,2.0,3.0,68,0.00,,,0.00,Wunderground v.1.15,2013-08-03 14:35:00,
2013-08-03 10:45:00,85.9,75.4,30.06,ESE,119,1.0,2.0,71,0.00,,,0.00,Wunderground v.1.15,2013-08-03 14:45:00,
2013-08-03 10:50:00,86.3,74.0,30.06,NW,319,1.0,1.0,67,0.00,,,0.00,Wunderground v.1.15,2013-08-03 14:50:00,
2013-08-03 10:55:00,86.4,74.1,30.06,NNW,331,2.0,2.0,67,0.00,,,0.00,Wunderground v.1.15,2013-08-03 14:55:00,
2013-08-03 11:05:00,86.4,75.0,30.06,SSW,200,2.0,4.0,69,0.00,,,0.00,Wunderground v.1.15,2013-08-03 15:05:00,
2013-08-03 11:15:00,86.3,74.5,30.06,NW,316,3.0,3.0,68,0.00,,,0.00,Wunderground v.1.15,2013-08-03 15:15:00,
2013-08-03 11:25:00,86.5,72.9,30.06,NW,313,2.0,2.0,64,0.00,,,0.00,Wunderground v.1.15,2013-08-03 15:25:00,
2013-08-03 11:35:00,85.8,73.6,30.06,West,265,2.0,2.0,67,0.00,,,0.00,Wunderground v.1.15,2013-08-03 15:35:00,
2013-08-03 11:40:00,85.7,74.4,30.06,NW,319,1.0,2.0,69,0.00,,,0.00,Wunderground v.1.15,2013-08-03 15:40:00,
2013-08-03 11:50:00,86.3,74.5,30.06,WNW,300,2.0,3.0,68,0.00,,,0.00,Wunderground v.1.15,2013-08-03 15:50:00,
2013-08-03 12:00:00,86.6,73.9,30.06,WNW,295,3.0,5.0,66,0.00,,,0.00,Wunderground v.1.15,2013-08-03 16:00:00,
2013-08-03 12:10:00,86.9,73.3,30.06,West,267,3.0,3.0,64,0.00,,,0.00,Wunderground v.1.15,2013-08-03 16:10:00,
2013-08-03 12:15:00,87.1,73.4,30.06,West,275,3.0,3.0,64,0.00,,,0.00,Wunderground v.1.15,2013-08-03 16:15:00,
2013-08-03 12:25:00,87.1,73.4,30.06,SW,227,3.0,4.0,64,0.00,,,0.00,Wunderground v.1.15,2013-08-03 16:25:00,
2013-08-03 12:35:00,87.1,74.8,30.06,West,280,3.0,6.0,67,0.00,,,0.00,Wunderground v.1.15,2013-08-03 16:35:00,
2013-08-03 12:40:00,87.1,73.4,30.06,West,271,2.0,3.0,64,0.00,,,0.00,Wunderground v.1.15,2013-08-03 16:40:00,
2013-08-03 12:45:00,86.7,74.0,30.06,West,276,3.0,4.0,66,0.00,,,0.00,Wunderground v.1.15,2013-08-03 16:45:00,
2013-08-03 12:55:00,86.2,74.8,30.06,West,272,2.0,2.0,69,0.00,,,0.00,Wunderground v.1.15,2013-08-03 16:55:00,
2013-08-03 13:05:00,86.3,74.5,30.06,WNW,295,2.0,4.0,68,0.00,,,0.00,Wunderground v.1.15,2013-08-03 17:05:00,
2013-08-03 13:10:00,87.1,75.7,30.06,WSW,258,1.0,1.0,69,0.00,,,0.00,Wunderground v.1.15,2013-08-03 17:10:00,
2013-08-03 13:20:00,87.6,74.8,30.05,West,259,2.0,2.0,66,0.00,,,0.00,Wunderground v.1.15,2013-08-03 17:20:00,
2013-08-03 13:30:00,86.5,74.2,30.05,SSW,198,3.0,3.0,67,0.00,,,0.00,Wunderground v.1.15,2013-08-03 17:30:00,
2013-08-03 13:40:00,86.5,75.5,30.05,West,264,1.0,1.0,70,0.00,,,0.00,Wunderground v.1.15,2013-08-03 17:40:00,
2013-08-03 13:49:00,87.0,73.8,30.05,West,266,3.0,3.0,65,0.00,,,0.00,Wunderground v.1.15,2013-08-03 17:49:00,
2013-08-03 13:55:00,86.7,74.0,30.05,NW,309,3.0,3.0,66,0.00,,,0.00,Wunderground v.1.15,2013-08-03 17:55:00,
2013-08-03 14:05:00,87.1,73.4,30.05,WSW,241,2.0,3.0,64,0.00,,,0.00,Wunderground v.1.15,2013-08-03 18:05:00,
2013-08-03 14:15:00,86.7,73.5,30.05,NW,323,2.0,4.0,65,0.00,,,0.00,Wunderground v.1.15,2013-08-03 18:15:00,
2013-08-03 14:25:00,87.1,74.8,30.04,WNW,294,1.0,2.0,67,0.00,,,0.00,Wunderground v.1.15,2013-08-03 18:25:00,
2013-08-03 14:30:00,87.1,74.4,30.05,NW,326,2.0,4.0,66,0.00,,,0.00,Wunderground v.1.15,2013-08-03 18:30:00,
2013-08-03 14:35:00,86.4,74.1,30.05,NW,319,2.0,4.0,67,0.00,,,0.00,Wunderground v.1.15,2013-08-03 18:35:00,
2013-08-03 14:45:00,86.3,76.2,30.04,NW,311,0.0,2.0,72,0.00,,,0.00,Wunderground v.1.15,2013-08-03 18:45:00,
2013-08-03 14:55:00,86.8,74.5,30.03,West,276,1.0,1.0,67,0.00,,,0.00,Wunderground v.1.15,2013-08-03 18:55:00,
2013-08-03 15:05:00,86.9,75.5,30.03,WNW,293,2.0,3.0,69,0.00,,,0.00,Wunderground v.1.15,2013-08-03 19:05:00,
2013-08-03 15:10:00,87.3,74.5,30.03,SW,218,2.0,2.0,66,0.00,,,0.00,Wunderground v.1.15,2013-08-03 19:10:00,
2013-08-03 15:20:00,87.0,74.7,30.02,NNW,333,3.0,3.0,67,0.00,,,0.00,Wunderground v.1.15,2013-08-03 19:20:00,
2013-08-03 15:30:00,86.8,75.4,30.02,South,169,3.0,4.0,69,0.00,,,0.00,Wunderground v.1.15,2013-08-03 19:30:00,
2013-08-03 15:40:00,87.0,73.3,30.02,WSW,246,2.0,2.0,64,0.00,,,0.00,Wunderground v.1.15,2013-08-03 19:40:00,
2013-08-03 15:50:00,87.4,75.5,30.01,WSW,244,2.0,4.0,68,0.00,,,0.00,Wunderground v.1.15,2013-08-03 19:50:00,
2013-08-03 15:55:00,87.4,75.5,30.02,WNW,291,2.0,4.0,68,0.00,,,0.00,Wunderground v.1.15,2013-08-03 19:55:00,
2013-08-03 16:00:00,87.6,74.8,30.01,WSW,250,2.0,5.0,66,0.00,,,0.00,Wunderground v.1.15,2013-08-03 20:00:00,
2013-08-03 16:10:00,87.2,74.9,30.01,West,268,3.0,3.0,67,0.00,,,0.00,Wunderground v.1.15,2013-08-03 20:10:00,
2013-08-03 16:15:00,87.4,74.6,30.01,NW,304,2.0,3.0,66,0.00,,,0.00,Wunderground v.1.15,2013-08-03 20:15:00,
2013-08-03 16:25:00,87.3,75.9,30.01,NW,314,3.0,4.0,69,0.00,,,0.00,Wunderground v.1.15,2013-08-03 20:25:00,
2013-08-03 16:35:00,87.2,74.0,30.01,WSW,256,2.0,2.0,65,0.00,,,0.00,Wunderground v.1.15,2013-08-03 20:35:00,
2013-08-03 16:40:00,87.3,74.5,30.00,North,349,2.0,3.0,66,0.00,,,0.00,Wunderground v.1.15,2013-08-03 20:40:00,
2013-08-03 16:50:00,86.9,73.7,30.00,NNW,345,3.0,4.0,65,0.00,,,0.00,Wunderground v.1.15,2013-08-03 20:50:00,
2013-08-03 16:55:00,86.9,74.6,30.00,WNW,300,2.0,4.0,67,0.00,,,0.00,Wunderground v.1.15,2013-08-03 20:55:00,
2013-08-03 17:00:00,86.6,75.6,30.00,West,275,2.0,2.0,70,0.00,,,0.00,Wunderground v.1.15,2013-08-03 21:00:00,
2013-08-03 17:10:00,86.8,75.8,30.00,West,273,1.0,1.0,70,0.00,,,0.00,Wunderground v.1.15,2013-08-03 21:10:00,
2013-08-03 17:20:00,87.9,76.0,30.00,NW,324,1.0,2.0,68,0.00,,,0.00,Wunderground v.1.15,2013-08-03 21:20:00,
2013-08-03 17:25:00,87.9,74.7,30.00,NW,319,2.0,3.0,65,0.00,,,0.00,Wunderground v.1.15,2013-08-03 21:25:00,
2013-08-03 17:30:00,87.3,75.4,30.00,WNW,284,2.0,2.0,68,0.00,,,0.00,Wunderground v.1.15,2013-08-03 21:30:00,
2013-08-03 17:40:00,86.5,75.1,30.00,NW,319,2.0,2.0,69,0.00,,,0.00,Wunderground v.1.15,2013-08-03 21:40:00,
2013-08-03 17:50:00,86.2,74.8,29.99,NW,308,2.0,2.0,69,0.00,,,0.00,Wunderground v.1.15,2013-08-03 21:50:00,
2013-08-03 17:55:00,85.5,75.0,29.99,NW,313,2.0,2.0,71,0.00,,,0.00,Wunderground v.1.15,2013-08-03 21:55:00,
2013-08-03 18:05:00,84.8,75.2,30.00,WNW,286,0.0,1.0,73,0.00,,,0.00,Wunderground v.1.15,2013-08-03 22:05:00,
2013-08-03 18:14:00,84.5,75.3,30.00,WNW,291,0.0,1.0,74,0.00,,,0.00,Wunderground v.1.15,2013-08-03 22:14:00,
2013-08-03 18:20:00,84.2,74.6,29.99,WNW,291,0.0,0.0,73,0.00,,,0.00,Wunderground v.1.15,2013-08-03 22:20:00,
2013-08-03 18:25:00,84.0,76.4,30.00,WNW,291,0.0,0.0,78,0.00,,,0.00,Wunderground v.1.15,2013-08-03 22:25:00,
2013-08-03 18:34:00,83.5,76.3,30.00,WNW,291,0.0,0.0,79,0.00,,,0.00,Wunderground v.1.15,2013-08-03 22:34:00,
2013-08-03 18:39:00,83.2,76.8,30.00,WNW,291,0.0,0.0,81,0.00,,,0.00,Wunderground v.1.15,2013-08-03 22:39:00,
2013-08-03 18:50:00,82.7,76.6,30.00,WNW,291,0.0,0.0,82,0.00,,,0.00,Wunderground v.1.15,2013-08-03 22:50:00,
2013-08-03 18:55:00,82.6,77.3,30.00,WNW,291,0.0,0.0,84,0.00,,,0.00,Wunderground v.1.15,2013-08-03 22:55:00,
2013-08-03 19:00:00,82.5,76.8,30.00,WNW,291,0.0,0.0,83,0.00,,,0.00,Wunderground v.1.15,2013-08-03 23:00:00,
2013-08-03 19:10:00,82.8,76.7,30.00,WNW,291,0.0,0.0,82,0.00,,,0.00,Wunderground v.1.15,2013-08-03 23:10:00,
2013-08-03 19:20:00,82.7,78.1,30.00,WNW,291,0.0,0.0,86,0.00,,,0.00,Wunderground v.1.15,2013-08-03 23:20:00,
2013-08-03 19:30:00,82.0,77.4,30.00,WNW,291,0.0,0.0,86,0.00,,,0.00,Wunderground v.1.15,2013-08-03 23:30:00,
2013-08-03 19:40:00,81.4,77.5,30.00,NW,325,0.0,0.0,88,0.00,,,0.00,Wunderground v.1.15,2013-08-03 23:40:00,
2013-08-03 19:50:00,80.6,76.7,30.00,South,169,0.0,0.0,88,0.00,,,0.00,Wunderground v.1.15,2013-08-03 23:50:00,
2013-08-03 19:59:00,79.7,76.2,30.00,ESE,105,0.0,0.0,89,0.00,,,0.00,Wunderground v.1.15,2013-08-03 23:59:00,
2013-08-03 20:05:00,79.3,76.1,30.01,ESE,105,0.0,0.0,90,0.00,,,0.00,Wunderground v.1.15,2013-08-04 00:05:00,
2013-08-03 20:14:00,78.7,75.8,30.01,ESE,105,0.0,0.0,91,0.00,,,0.00,Wunderground v.1.15,2013-08-04 00:14:00,
2013-08-03 20:20:00,78.7,76.2,30.01,ESE,105,0.0,0.0,92,0.00,,,0.00,Wunderground v.1.15,2013-08-04 00:20:00,
2013-08-03 20:25:00,78.4,75.9,30.01,ESE,105,0.0,0.0,92,0.00,,,0.00,Wunderground v.1.15,2013-08-04 00:25:00,
2013-08-03 20:30:00,78.2,76.0,30.01,ESE,105,0.0,0.0,93,0.00,,,0.00,Wunderground v.1.15,2013-08-04 00:30:00,
2013-08-03 20:40:00,77.7,75.8,30.01,ESE,105,0.0,0.0,94,0.00,,,0.00,Wunderground v.1.15,2013-08-04 00:40:00,
2013-08-03 20:50:00,77.3,75.4,30.01,ESE,105,0.0,0.0,94,0.00,,,0.00,Wunderground v.1.15,2013-08-04 00:50:00,
2013-08-03 20:55:00,77.0,75.1,30.01,ESE,105,0.0,0.0,94,0.00,,,0.00,Wunderground v.1.15,2013-08-04 00:55:00,
2013-08-03 21:00:00,76.8,75.3,30.01,ESE,105,0.0,0.0,95,0.00,,,0.00,Wunderground v.1.15,2013-08-04 01:00:00,
2013-08-03 21:09:00,76.4,74.9,30.02,ESE,105,0.0,0.0,95,0.00,,,0.00,Wunderground v.1.15,2013-08-04 01:09:00,
2013-08-03 21:15:00,76.2,74.7,30.02,ESE,105,0.0,0.0,95,0.00,,,0.00,Wunderground v.1.15,2013-08-04 01:15:00,
2013-08-03 21:20:00,76.1,74.6,30.02,ESE,105,0.0,0.0,95,0.00,,,0.00,Wunderground v.1.15,2013-08-04 01:20:00,
2013-08-03 21:25:00,76.0,74.5,30.02,ESE,105,0.0,0.0,95,0.00,,,0.00,Wunderground v.1.15,2013-08-04 01:25:00,
2013-08-03 21:35:00,75.7,74.5,30.02,ESE,105,0.0,0.0,96,0.00,,,0.00,Wunderground v.1.15,2013-08-04 01:35:00,
2013-08-03 21:40:00,75.5,74.3,30.02,ESE,105,0.0,0.0,96,0.00,,,0.00,Wunderground v.1.15,2013-08-04 01:40:00,
2013-08-03 21:50:00,75.2,74.0,30.02,ESE,105,0.0,0.0,96,0.00,,,0.00,Wunderground v.1.15,2013-08-04 01:50:00,
2013-08-03 21:54:00,75.1,73.9,30.02,ESE,105,0.0,0.0,96,0.00,,,0.00,Wunderground v.1.15,2013-08-04 01:54:00,
2013-08-03 22:05:00,74.9,73.7,30.03,ESE,105,0.0,0.0,96,0.00,,,0.00,Wunderground v.1.15,2013-08-04 02:05:00,
2013-08-03 22:15:00,74.6,73.4,30.03,ESE,105,0.0,0.0,96,0.00,,,0.00,Wunderground v.1.15,2013-08-04 02:15:00,
2013-08-03 22:25:00,74.4,73.5,30.03,ESE,105,0.0,0.0,97,0.00,,,0.00,Wunderground v.1.15,2013-08-04 02:25:00,
2013-08-03 22:34:00,74.2,73.3,30.04,ESE,105,0.0,0.0,97,0.00,,,0.00,Wunderground v.1.15,2013-08-04 02:34:00,
2013-08-03 22:40:00,74.1,73.2,30.04,ESE,105,0.0,0.0,97,0.00,,,0.00,Wunderground v.1.15,2013-08-04 02:40:00,
2013-08-03 22:45:00,74.0,73.1,30.04,ESE,105,0.0,0.0,97,0.00,,,0.00,Wunderground v.1.15,2013-08-04 02:45:00,
2013-08-03 22:54:00,73.8,72.9,30.04,ESE,105,0.0,0.0,97,0.00,,,0.00,Wunderground v.1.15,2013-08-04 02:54:00,
2013-08-03 23:00:00,73.8,72.9,30.04,ESE,105,0.0,0.0,97,0.00,,,0.00,Wunderground v.1.15,2013-08-04 03:00:00,
2013-08-03 23:09:00,73.6,72.7,30.04,ESE,105,0.0,0.0,97,0.00,,,0.00,Wunderground v.1.15,2013-08-04 03:09:00,
2013-08-03 23:19:00,73.4,72.5,30.04,ESE,105,0.0,0.0,97,0.00,,,0.00,Wunderground v.1.15,2013-08-04 03:19:00,
2013-08-03 23:30:00,73.3,72.4,30.03,ESE,105,0.0,0.0,97,0.00,,,0.00,Wunderground v.1.15,2013-08-04 03:30:00,
2013-08-03 23:35:00,73.2,72.3,30.03,ESE,105,0.0,0.0,97,0.00,,,0.00,Wunderground v.1.15,2013-08-04 03:35:00,
2013-08-03 23:45:00,73.2,72.3,30.03,ESE,105,0.0,0.0,97,0.00,,,0.00,Wunderground v.1.15,2013-08-04 03:45:00,
2013-08-03 23:55:00,73.1,72.2,30.03,ESE,105,0.0,0.0,97,0.00,,,0.00,Wunderground v.1.15,2013-08-04 03:55:00,